SL-14 R/B, 21034

Orbit data source: Space-Track

SL-14 R/B, 21034 is space debris in LEO originally from a launch on Sat, 22 Dec 1990 UTC launched from the Plesetsk Missile And Space Complex (PKMTR). Debris objects in space refer to the collection of defunct objects orbiting the Earth. Examples of debris include non-operational satellites, rocket bodies, and fragments generated from explosions, collisions, or faulty payload assembly.

Loading next visibility...
Identifier
21034, 1990-114G
Orbit
LEO
Last TLE update
16 hours ago
Origin
Manufacturer
Yuzhnoe
Mission
Spacecraft
Bus & Motor
S5M, Unknown motor
Mass
1,600 kg wet, 1,600 kg dry
Launch date (UTC)
1990-12-22 (35 years ago)
Launch vehicle
Unknown
Launch site
Plesetsk Missile And Space Complex (PKMTR)
Object type
Payload
Rocket body
Debris
Shape & HBR
Cyl, 2.7 m
Radar Cross Section
7.351 m², Large (>1 m²)

Expand to show TLE details & history

TLE from 16 hours ago
0 SL-14 R/B
1 21034U 90114G   25191.79689895 -.00000001  00000-0 -71837-4 0  9997
2 21034  82.5659 186.1145 0040378  62.6447  10.9437 12.55534766583277
Epoch: 2025-07-10T19:07Z
TLE epoch observation values (Epoch: 2025-07-10T19:07:32.069Z)
Latitude
72.17053°
Longitude
-5.9184°
Altitude
1,422.852 km
Speed
7.17 km/s
True Right ascension
13h 59m 41s
True Declination
72° 04' 43"
Sunlit
Object was in daylight at epoch
Visualization orbit readout
Latitude
0.71442°
Longitude
149.76311°
Altitude
1,458.789 km
Speed
7.126 km/s
Apparent Right ascension
01h 57m 22s
Apparent Declination
-49° 14' 10"
Sunlit
Object is in daylight
Visualization observer readout
Local Sidereal Time
23:17:00
Azimuth
154.993° SSE
Elevation
-5.905°
Doppler factor
1
Orbital elements
Apogee altitude
1,470.323 km
Perigee altitude
1,407.197 km
Semi-major axis
7,816.897 km
Eccentricity
0.00404
Inclination
82.5659°
RAAN
186.1145°
Arg. of periapsis
62.6447°
True anomaly
Unknown
Mean anomaly
10.9437°
Eccentric anomaly
Unknown
Mean motion
3.14045 °/min
Orbital period
114.63 mins
BSTAR
-0.000071837
Loading maneuver chart data...
Loading SW <> Apogee altitude chart data...
Loading historical data...
Loading historical data...
Loading historical data...
Loading historical data...
Loading historical data...
Loading historical data...
Loading historical data...

SL-14 R/B Visibility forecast

Observer location: undefined°, undefined°

Span
Click to sort rows by Start time (UTC) header in descending order
Start Az.
Max El. time (UTC)
Max El. Az.
Max El.
End time (UTC)
End Az.
14 mins2025-07-11 12:34:03.067Z336.371° NNW2025-07-11 12:41:03.067Z277.172° WNW31.789°2025-07-11 12:48:03.067Z212.469° SW
13 mins2025-07-11 23:32:03.067Z152.75° SSE2025-07-11 23:38:03.067Z89.33° E35.899°2025-07-11 23:45:03.067Z21.418° NNE
13 mins2025-07-12 01:28:03.067Z230.679° WSW2025-07-12 01:34:03.067Z290.897° WNW30.332°2025-07-12 01:41:03.067Z351.167° N
10 mins2025-07-12 09:37:03.067Z28.325° NE2025-07-12 09:41:03.067Z60.036° ENE18.259°2025-07-12 09:47:03.067Z106.44° ESE
|